TimeCDT,TemperatureF,Dew PointF,Humidity,Sea Level PressureIn,VisibilityMPH,Wind Direction,Wind SpeedMPH,Gust SpeedMPH,PrecipitationIn,Events,Conditions,WindDirDegrees,DateUTC
12:56 AM,73.9,73.9,100,29.93,10.0,Calm,Calm,-,N/A,,Clear,0,2013-08-08 05:56:00
1:56 AM,72.9,72.9,100,29.92,10.0,Calm,Calm,-,N/A,,Clear,0,2013-08-08 06:56:00
2:56 AM,72.9,72.9,100,29.91,10.0,Calm,Calm,-,N/A,,Clear,0,2013-08-08 07:56:00
3:41 AM,73.4,73.4,100,29.92,10.0,Calm,Calm,-,N/A,,Mostly Cloudy,0,2013-08-08 08:41:00
3:56 AM,72.9,72.9,100,29.91,10.0,Calm,Calm,-,N/A,,Mostly Cloudy,0,2013-08-08 08:56:00
4:35 AM,73.4,73.4,100,29.91,10.0,Calm,Calm,-,N/A,,Scattered Clouds,0,2013-08-08 09:35:00
4:56 AM,72.9,72.9,100,29.91,8.0,Calm,Calm,-,N/A,,Mostly Cloudy,0,2013-08-08 09:56:00
5:10 AM,73.4,73.4,100,29.92,8.0,Calm,Calm,-,N/A,,Mostly Cloudy,0,2013-08-08 10:10:00
5:56 AM,72.9,72.9,100,29.92,5.0,Calm,Calm,-,N/A,,Mostly Cloudy,0,2013-08-08 10:56:00
6:12 AM,73.4,73.4,100,29.93,4.0,East,3.5,-,N/A,,Overcast,100,2013-08-08 11:12:00
6:56 AM,73.9,73.9,100,29.91,3.0,Calm,Calm,-,N/A,,Overcast,0,2013-08-08 11:56:00
7:32 AM,75.2,75.2,100,29.94,3.0,Calm,Calm,-,N/A,,Overcast,0,2013-08-08 12:32:00
7:56 AM,75.9,75.9,100,29.94,1.0,SE,6.9,-,N/A,,Overcast,140,2013-08-08 12:56:00
8:00 AM,75.2,75.2,100,29.95,0.5,SSE,6.9,-,N/A,Fog,Fog,150,2013-08-08 13:00:00
8:35 AM,75.2,75.2,100,29.96,1.0,SE,5.8,-,N/A,,Overcast,140,2013-08-08 13:35:00
8:56 AM,75.9,75.9,100,29.95,3.0,SSE,6.9,-,N/A,,Overcast,150,2013-08-08 13:56:00
9:05 AM,77.0,77.0,100,29.96,3.0,SE,4.6,-,N/A,,Overcast,130,2013-08-08 14:05:00
9:40 AM,78.8,77.0,94,29.97,5.0,SSE,5.8,-,N/A,,Mostly Cloudy,160,2013-08-08 14:40:00
9:56 AM,81.9,77.0,85,29.96,7.0,Variable,3.5,-,N/A,,Mostly Cloudy,0,2013-08-08 14:56:00
10:30 AM,82.4,73.4,74,29.98,10.0,SSW,5.8,-,N/A,,Mostly Cloudy,200,2013-08-08 15:30:00
10:56 AM,82.9,73.9,74,29.96,10.0,WSW,8.1,-,N/A,,Mostly Cloudy,240,2013-08-08 15:56:00
11:56 AM,86.0,73.9,67,29.94,10.0,SW,4.6,-,N/A,,Scattered Clouds,230,2013-08-08 16:56:00
12:56 PM,86.9,72.9,63,29.94,10.0,WSW,9.2,-,N/A,,Scattered Clouds,240,2013-08-08 17:56:00
1:56 PM,88.0,74.8,65,29.93,10.0,WSW,8.1,-,N/A,,Scattered Clouds,240,2013-08-08 18:56:00
2:56 PM,83.8,75.9,77,29.91,10.0,SSE,4.6,-,N/A,Thunderstorm,Partly Cloudy,160,2013-08-08 19:56:00
3:28 PM,82.4,75.2,79,29.91,8.0,South,6.9,-,0.00,Rain,Light Rain,180,2013-08-08 20:28:00
3:56 PM,79.9,77.9,94,29.89,8.0,South,9.2,-,0.00,Rain,Light Rain,170,2013-08-08 20:56:00
4:56 PM,77.9,77.9,100,29.92,8.0,SSW,9.2,-,0.00,,Scattered Clouds,210,2013-08-08 21:56:00
5:56 PM,79.9,77.0,91,29.90,10.0,SW,5.8,-,N/A,,Clear,220,2013-08-08 22:56:00
6:56 PM,79.9,77.0,91,29.88,10.0,SSW,8.1,-,N/A,,Clear,210,2013-08-08 23:56:00
7:45 PM,78.8,77.0,94,29.91,10.0,SW,9.2,-,N/A,,Mostly Cloudy,220,2013-08-09 00:45:00
7:56 PM,77.9,77.0,97,29.90,10.0,SSW,6.9,-,N/A,,Partly Cloudy,210,2013-08-09 00:56:00
8:56 PM,75.9,75.9,100,29.94,8.0,Calm,Calm,-,N/A,,Partly Cloudy,0,2013-08-09 01:56:00
9:31 PM,75.2,75.2,100,29.96,9.0,SSW,3.5,-,N/A,,Mostly Cloudy,210,2013-08-09 02:31:00
9:38 PM,75.2,75.2,100,29.96,10.0,SSW,5.8,-,N/A,,Mostly Cloudy,200,2013-08-09 02:38:00
9:56 PM,75.9,75.9,100,29.95,10.0,SSW,3.5,-,N/A,,Mostly Cloudy,200,2013-08-09 02:56:00
10:43 PM,75.2,75.2,100,29.95,10.0,South,5.8,-,N/A,,Mostly Cloudy,190,2013-08-09 03:43:00
10:56 PM,74.8,74.8,100,29.93,10.0,South,4.6,-,N/A,,Mostly Cloudy,190,2013-08-09 03:56:00
11:56 PM,73.9,73.9,100,29.93,10.0,South,3.5,-,N/A,,Mostly Cloudy,180,2013-08-09 04:56:00